Location: Ellen Observatory
(29.0040°N, 81.3000°W)
Time: 07:07:01
(UTC-04:00)

OTV 5 (USA 277) - Visible Passes

Search period start: 15 October 2018 00:00
Search period end: 25 October 2018 00:00
Orbit: 387 x 394 km, 54.5° (Epoch: 08 September)

Date Brightness Start Highest point End Pass type
(mag) Time Alt. Az. Time Alt. Az. Time Alt. Az.
16 Oct ? 06:09:54 10° NNE 06:11:22 12° NE 06:12:49 10° ENE visible
17 Oct ? 06:47:54 10° NW 06:51:04 70° NE 06:54:13 10° SE visible
18 Oct ? 05:53:29 20° NNE 05:54:37 24° NE 05:57:16 10° ESE visible
19 Oct ? 06:32:31 23° WNW 06:34:06 43° SW 06:37:07 10° SSE visible
20 Oct ? 05:39:14 27° ESE 05:39:14 27° ESE 05:40:52 10° SE visible
20 Oct ? 20:30:32 10° SSW 20:31:45 21° SSW 20:31:45 21° SSW visible
21 Oct ? 06:18:28 14° SSW 06:18:28 14° SSW 06:19:17 10° S visible
21 Oct ? 19:34:54 10° S 19:37:23 21° SE 19:38:24 18° E visible
22 Oct ? 20:13:38 10° SW 20:16:43 46° NW 20:17:21 39° N visible
23 Oct ? 19:17:14 10° SSW 19:20:20 52° SE 19:23:26 10° NE visible
24 Oct ? 19:57:19 10° W 19:59:50 21° NW 20:02:22 10° N visible
